TimePDT,TemperatureF,Dew PointF,Humidity,Sea Level PressureIn,VisibilityMPH,Wind Direction,Wind SpeedMPH,Gust SpeedMPH,PrecipitationIn,Events,Conditions,WindDirDegrees,DateUTC
12:15 AM,32.0,10.4,41,30.23,10.0,Calm,Calm,-,N/A,,Clear,0,2012-10-28 07:15:00
12:35 AM,30.2,10.4,44,30.23,10.0,Calm,Calm,-,N/A,,Clear,0,2012-10-28 07:35:00
12:55 AM,30.2,10.4,44,30.23,10.0,Calm,Calm,-,N/A,,Clear,0,2012-10-28 07:55:00
1:15 AM,30.2,10.4,44,30.23,10.0,Calm,Calm,-,N/A,,Clear,0,2012-10-28 08:15:00
1:35 AM,30.2,10.4,44,30.23,10.0,Calm,Calm,-,N/A,,Clear,0,2012-10-28 08:35:00
1:55 AM,30.2,10.4,44,30.23,10.0,Calm,Calm,-,N/A,,Clear,0,2012-10-28 08:55:00
2:15 AM,30.2,10.4,44,30.23,10.0,Calm,Calm,-,N/A,,Clear,0,2012-10-28 09:15:00
2:35 AM,28.4,10.4,47,30.23,10.0,Calm,Calm,-,N/A,,Clear,0,2012-10-28 09:35:00
2:55 AM,28.4,10.4,47,30.23,10.0,Calm,Calm,-,N/A,,Clear,0,2012-10-28 09:55:00
3:15 AM,28.4,10.4,47,30.23,10.0,Calm,Calm,-,N/A,,Clear,0,2012-10-28 10:15:00
3:35 AM,28.4,10.4,47,30.22,10.0,Calm,Calm,-,N/A,,Clear,0,2012-10-28 10:35:00
3:55 AM,28.4,10.4,47,30.21,10.0,Calm,Calm,-,N/A,,Clear,0,2012-10-28 10:55:00
4:15 AM,28.4,10.4,47,30.21,10.0,Calm,Calm,-,N/A,,Clear,0,2012-10-28 11:15:00
4:35 AM,28.4,10.4,47,30.21,10.0,Calm,Calm,-,N/A,,Clear,0,2012-10-28 11:35:00
4:55 AM,28.4,10.4,47,30.22,10.0,Calm,Calm,-,N/A,,Clear,0,2012-10-28 11:55:00
5:15 AM,28.4,10.4,47,30.22,10.0,Calm,Calm,-,N/A,,Clear,0,2012-10-28 12:15:00
5:35 AM,28.4,10.4,47,30.22,10.0,Calm,Calm,-,N/A,,Clear,0,2012-10-28 12:35:00
5:55 AM,26.6,10.4,51,30.22,10.0,Calm,Calm,-,N/A,,Clear,0,2012-10-28 12:55:00
6:15 AM,26.6,10.4,51,30.22,10.0,Calm,Calm,-,N/A,,Clear,0,2012-10-28 13:15:00
6:35 AM,26.6,10.4,51,30.22,10.0,Calm,Calm,-,N/A,,Clear,0,2012-10-28 13:35:00
6:55 AM,26.6,10.4,51,30.22,10.0,Calm,Calm,-,N/A,,Clear,0,2012-10-28 13:55:00
7:15 AM,26.6,10.4,51,30.23,10.0,Calm,Calm,-,N/A,,Clear,0,2012-10-28 14:15:00
7:35 AM,26.6,10.4,51,30.23,10.0,Calm,Calm,-,N/A,,Clear,0,2012-10-28 14:35:00
7:55 AM,30.2,10.4,44,30.24,10.0,Calm,Calm,-,N/A,,Clear,0,2012-10-28 14:55:00
8:15 AM,32.0,12.2,44,30.24,10.0,Calm,Calm,-,N/A,,Clear,0,2012-10-28 15:15:00
8:35 AM,35.6,14.0,41,30.25,10.0,Calm,Calm,-,N/A,,Clear,0,2012-10-28 15:35:00
8:55 AM,41.0,19.4,42,30.25,10.0,Calm,Calm,-,N/A,,Clear,0,2012-10-28 15:55:00
9:15 AM,44.6,17.6,34,30.25,10.0,Calm,Calm,-,N/A,,Clear,0,2012-10-28 16:15:00
9:35 AM,48.2,17.6,30,30.25,10.0,Calm,Calm,-,N/A,,Clear,0,2012-10-28 16:35:00
10:15 AM,55.4,12.2,18,30.24,10.0,Calm,Calm,-,N/A,,Clear,0,2012-10-28 17:15:00
10:35 AM,60.8,10.4,14,30.24,10.0,East,4.6,-,N/A,,Clear,80,2012-10-28 17:35:00
10:55 AM,64.4,8.6,11,30.24,10.0,ENE,3.5,-,N/A,,Clear,70,2012-10-28 17:55:00
11:15 AM,64.4,8.6,11,30.24,10.0,ENE,6.9,-,N/A,,Clear,70,2012-10-28 18:15:00
11:35 AM,64.4,8.6,11,30.24,10.0,ENE,4.6,-,N/A,,Clear,60,2012-10-28 18:35:00
11:55 AM,66.2,8.6,11,30.23,10.0,East,8.1,-,N/A,,Clear,90,2012-10-28 18:55:00
12:15 PM,64.4,8.6,11,30.23,10.0,ENE,5.8,-,N/A,,Clear,60,2012-10-28 19:15:00
12:35 PM,68.0,8.6,10,30.22,10.0,SE,5.8,-,N/A,,Clear,130,2012-10-28 19:35:00
12:55 PM,68.0,8.6,10,30.22,10.0,ENE,8.1,-,N/A,,Clear,70,2012-10-28 19:55:00
1:15 PM,66.2,8.6,11,30.22,10.0,Calm,Calm,-,N/A,,Clear,0,2012-10-28 20:15:00
1:35 PM,66.2,10.4,11,30.22,10.0,Calm,Calm,-,N/A,,Clear,0,2012-10-28 20:35:00
1:55 PM,64.4,8.6,11,30.21,10.0,ENE,8.1,-,N/A,,Clear,60,2012-10-28 20:55:00
2:15 PM,64.4,8.6,11,30.21,10.0,ENE,9.2,-,N/A,,Clear,60,2012-10-28 21:15:00
2:35 PM,64.4,10.4,12,30.21,10.0,East,10.4,-,N/A,,Clear,80,2012-10-28 21:35:00
2:55 PM,64.4,8.6,11,30.21,10.0,NE,5.8,-,N/A,,Clear,50,2012-10-28 21:55:00
3:15 PM,64.4,10.4,12,30.21,10.0,ENE,9.2,-,N/A,,Clear,70,2012-10-28 22:15:00
3:35 PM,64.4,12.2,13,30.21,10.0,West,4.6,-,N/A,,Clear,260,2012-10-28 22:35:00
3:55 PM,64.4,12.2,13,30.21,10.0,West,6.9,-,N/A,,Clear,260,2012-10-28 22:55:00
4:15 PM,64.4,14.0,14,30.22,10.0,West,9.2,-,N/A,,Clear,260,2012-10-28 23:15:00
4:35 PM,62.6,12.2,14,30.22,10.0,West,8.1,-,N/A,,Clear,260,2012-10-28 23:35:00
4:55 PM,62.6,12.2,14,30.22,10.0,WSW,4.6,-,N/A,,Clear,250,2012-10-28 23:55:00
5:15 PM,60.8,14.0,16,30.22,10.0,SW,3.5,-,N/A,,Clear,230,2012-10-29 00:15:00
5:35 PM,59.0,15.8,19,30.23,10.0,Calm,Calm,-,N/A,,Clear,0,2012-10-29 00:35:00
5:55 PM,55.4,14.0,20,30.23,10.0,Calm,Calm,-,N/A,,Clear,0,2012-10-29 00:55:00
6:15 PM,51.8,12.2,21,30.23,10.0,Calm,Calm,-,N/A,,Clear,0,2012-10-29 01:15:00
6:35 PM,50.0,12.2,22,30.24,10.0,Calm,Calm,-,N/A,,Clear,0,2012-10-29 01:35:00
6:55 PM,46.4,12.2,25,30.25,10.0,Calm,Calm,-,N/A,,Clear,0,2012-10-29 01:55:00
7:15 PM,44.6,10.4,25,30.25,10.0,Calm,Calm,-,N/A,,Clear,0,2012-10-29 02:15:00
7:35 PM,42.8,10.4,27,30.26,10.0,Calm,Calm,-,N/A,,Clear,0,2012-10-29 02:35:00
7:55 PM,41.0,10.4,29,30.26,10.0,Calm,Calm,-,N/A,,Clear,0,2012-10-29 02:55:00
8:15 PM,39.2,10.4,31,30.26,10.0,Calm,Calm,-,N/A,,Clear,0,2012-10-29 03:15:00
8:35 PM,37.4,10.4,33,30.27,10.0,Calm,Calm,-,N/A,,Clear,0,2012-10-29 03:35:00
8:55 PM,35.6,10.4,35,30.28,10.0,Calm,Calm,-,N/A,,Clear,0,2012-10-29 03:55:00
9:15 PM,35.6,10.4,35,30.28,10.0,Calm,Calm,-,N/A,,Clear,0,2012-10-29 04:15:00
9:35 PM,33.8,10.4,38,30.29,10.0,Calm,Calm,-,N/A,,Clear,0,2012-10-29 04:35:00
9:55 PM,33.8,10.4,38,30.29,10.0,Calm,Calm,-,N/A,,Clear,0,2012-10-29 04:55:00
10:15 PM,33.8,10.4,38,30.29,10.0,Calm,Calm,-,N/A,,Clear,0,2012-10-29 05:15:00
10:35 PM,32.0,12.2,44,30.30,10.0,Calm,Calm,-,N/A,,Clear,0,2012-10-29 05:35:00
10:55 PM,32.0,12.2,44,30.30,10.0,Calm,Calm,-,N/A,,Clear,0,2012-10-29 05:55:00
11:15 PM,32.0,10.4,41,30.30,10.0,Calm,Calm,-,N/A,,Clear,0,2012-10-29 06:15:00
11:35 PM,32.0,10.4,41,30.30,10.0,Calm,Calm,-,N/A,,Clear,0,2012-10-29 06:35:00
11:55 PM,32.0,10.4,41,30.30,10.0,Calm,Calm,-,N/A,,Clear,0,2012-10-29 06:55:00